Year,Month,Day,Hour,Minute,Value (Times are PST for temperature in C)
2020,04,25,00,00,10.80
2020,04,25,00,01,10.80
2020,04,25,00,02,10.80
2020,04,25,00,03,10.80
2020,04,25,00,04,10.80
2020,04,25,00,05,10.80
2020,04,25,00,06,10.80
2020,04,25,00,07,10.80
2020,04,25,00,08,10.80
2020,04,25,00,09,10.70
2020,04,25,00,10,10.70
2020,04,25,00,11,10.70
2020,04,25,00,12,10.70
2020,04,25,00,13,10.70
2020,04,25,00,14,10.70
2020,04,25,00,15,10.70
2020,04,25,00,16,10.70
2020,04,25,00,17,10.70
2020,04,25,00,18,10.70
2020,04,25,00,19,10.70
2020,04,25,00,20,10.70
2020,04,25,00,21,10.70
2020,04,25,00,22,10.70
2020,04,25,00,23,10.70
2020,04,25,00,24,10.70
2020,04,25,00,25,10.70
2020,04,25,00,26,10.70
2020,04,25,00,27,10.60
2020,04,25,00,28,10.60
2020,04,25,00,29,10.60
2020,04,25,00,30,10.60
2020,04,25,00,31,10.60
2020,04,25,00,32,10.60
2020,04,25,00,33,10.60
2020,04,25,00,34,10.60
2020,04,25,00,35,10.60
2020,04,25,00,36,10.60
2020,04,25,00,37,10.60
2020,04,25,00,38,10.60
2020,04,25,00,39,10.60
2020,04,25,00,40,10.60
2020,04,25,00,41,10.60
2020,04,25,00,42,10.60
2020,04,25,00,43,10.60
2020,04,25,00,44,10.60
2020,04,25,00,45,10.60
2020,04,25,00,46,10.60
2020,04,25,00,47,10.60
2020,04,25,00,48,10.60
2020,04,25,00,49,10.60
2020,04,25,00,50,10.60
2020,04,25,00,51,10.60
2020,04,25,00,52,10.60
2020,04,25,00,53,10.60
2020,04,25,00,54,10.60
2020,04,25,00,55,10.50
2020,04,25,00,56,10.50
2020,04,25,00,57,10.50
2020,04,25,00,58,10.50
2020,04,25,00,59,10.50
2020,04,25,01,00,10.50
2020,04,25,01,01,10.50
2020,04,25,01,02,10.50
2020,04,25,01,03,10.50
2020,04,25,01,04,10.50
2020,04,25,01,05,10.50
2020,04,25,01,06,10.50
2020,04,25,01,07,10.50
2020,04,25,01,08,10.40
2020,04,25,01,09,10.40
2020,04,25,01,10,10.40
2020,04,25,01,11,10.40
2020,04,25,01,12,10.40
2020,04,25,01,13,10.40
2020,04,25,01,14,10.40
2020,04,25,01,15,10.40
2020,04,25,01,16,10.40
2020,04,25,01,17,10.40
2020,04,25,01,18,10.40
2020,04,25,01,19,10.40
2020,04,25,01,20,10.40
2020,04,25,01,21,10.40
2020,04,25,01,22,10.40
2020,04,25,01,23,10.30
2020,04,25,01,24,10.30
2020,04,25,01,25,10.30
2020,04,25,01,26,10.30
2020,04,25,01,27,10.30
2020,04,25,01,28,10.30
2020,04,25,01,29,10.30
2020,04,25,01,30,10.30
2020,04,25,01,31,10.30
2020,04,25,01,32,10.30
2020,04,25,01,33,10.30
2020,04,25,01,34,10.20
2020,04,25,01,35,10.20
2020,04,25,01,36,10.20
2020,04,25,01,37,10.20
2020,04,25,01,38,10.20
2020,04,25,01,39,10.20
2020,04,25,01,40,10.20
2020,04,25,01,41,10.20
2020,04,25,01,42,10.20
2020,04,25,01,43,10.20
2020,04,25,01,44,10.20
2020,04,25,01,45,10.20
2020,04,25,01,46,10.20
2020,04,25,01,47,10.20
2020,04,25,01,48,10.20
2020,04,25,01,49,10.20
2020,04,25,01,50,10.20
2020,04,25,01,51,10.20
2020,04,25,01,52,10.20
2020,04,25,01,53,10.20
2020,04,25,01,54,10.10
2020,04,25,01,55,10.10
2020,04,25,01,56,10.10
2020,04,25,01,57,10.10
2020,04,25,01,58,10.10
2020,04,25,01,59,10.10
2020,04,25,02,00,10.00
2020,04,25,02,01,10.00
2020,04,25,02,02,10.00
2020,04,25,02,03,9.90
2020,04,25,02,04,9.90
2020,04,25,02,05,9.90
2020,04,25,02,06,9.90
2020,04,25,02,07,9.90
2020,04,25,02,08,10.00
2020,04,25,02,09,10.00
2020,04,25,02,10,10.00
2020,04,25,02,11,10.00
2020,04,25,02,12,9.90
2020,04,25,02,13,9.90
2020,04,25,02,14,9.90
2020,04,25,02,15,9.90
2020,04,25,02,16,9.90
2020,04,25,02,17,9.90
2020,04,25,02,18,9.90
2020,04,25,02,19,9.80
2020,04,25,02,20,9.80
2020,04,25,02,21,9.80
2020,04,25,02,22,9.80
2020,04,25,02,23,9.80
2020,04,25,02,24,9.80
2020,04,25,02,25,9.80
2020,04,25,02,26,9.80
2020,04,25,02,27,9.90
2020,04,25,02,28,9.90
2020,04,25,02,29,9.90
2020,04,25,02,30,9.90
2020,04,25,02,31,9.90
2020,04,25,02,32,9.90
2020,04,25,02,33,9.90
2020,04,25,02,34,9.90
2020,04,25,02,35,9.90
2020,04,25,02,36,9.90
2020,04,25,02,37,9.90
2020,04,25,02,38,9.90
2020,04,25,02,39,9.90
2020,04,25,02,40,9.80
2020,04,25,02,41,9.80
2020,04,25,02,42,9.80
2020,04,25,02,43,9.80
2020,04,25,02,44,9.80
2020,04,25,02,45,9.80
2020,04,25,02,46,9.80
2020,04,25,02,47,9.80
2020,04,25,02,48,9.80
2020,04,25,02,49,9.80
2020,04,25,02,50,9.80
2020,04,25,02,51,9.70
2020,04,25,02,52,9.70
2020,04,25,02,53,9.70
2020,04,25,02,54,9.70
2020,04,25,02,55,9.70
2020,04,25,02,56,9.70
2020,04,25,02,57,9.70
2020,04,25,02,58,9.70
2020,04,25,02,59,9.70
2020,04,25,03,00,9.60
2020,04,25,03,01,9.60
2020,04,25,03,02,9.60
2020,04,25,03,03,9.60
2020,04,25,03,04,9.60
2020,04,25,03,05,9.60
2020,04,25,03,06,9.60
2020,04,25,03,07,9.60
2020,04,25,03,08,9.60
2020,04,25,03,09,9.50
2020,04,25,03,10,9.50
2020,04,25,03,11,9.50
2020,04,25,03,12,9.50
2020,04,25,03,13,9.50
2020,04,25,03,14,9.40
2020,04,25,03,15,9.40
2020,04,25,03,16,9.40
2020,04,25,03,17,9.40
2020,04,25,03,18,9.40
2020,04,25,03,19,9.40
2020,04,25,03,20,9.40
2020,04,25,03,21,9.40
2020,04,25,03,22,9.40
2020,04,25,03,23,9.40
2020,04,25,03,24,9.40
2020,04,25,03,25,9.30
2020,04,25,03,26,9.30
2020,04,25,03,27,9.30
2020,04,25,03,28,9.30
2020,04,25,03,29,9.30
2020,04,25,03,30,9.30
2020,04,25,03,31,9.30
2020,04,25,03,32,9.30
2020,04,25,03,33,9.30
2020,04,25,03,34,9.30
2020,04,25,03,35,9.30
2020,04,25,03,36,9.30
2020,04,25,03,37,9.30
2020,04,25,03,38,9.30
2020,04,25,03,39,9.30
2020,04,25,03,40,9.30
2020,04,25,03,41,9.30
2020,04,25,03,42,9.30
2020,04,25,03,43,9.30
2020,04,25,03,44,9.30
2020,04,25,03,45,9.30
2020,04,25,03,46,9.40
2020,04,25,03,47,9.40
2020,04,25,03,48,9.40
2020,04,25,03,49,9.40
2020,04,25,03,50,9.40
2020,04,25,03,51,9.40
2020,04,25,03,52,9.40
2020,04,25,03,53,9.40
2020,04,25,03,54,9.40
2020,04,25,03,55,9.40
2020,04,25,03,56,9.40
2020,04,25,03,57,9.40
2020,04,25,03,58,9.40
2020,04,25,03,59,9.40
2020,04,25,04,00,9.40
2020,04,25,04,01,9.40
2020,04,25,04,02,9.40
2020,04,25,04,03,9.40
2020,04,25,04,04,9.40
2020,04,25,04,05,9.40
2020,04,25,04,06,9.40
2020,04,25,04,07,9.40
2020,04,25,04,08,9.40
2020,04,25,04,09,9.40
2020,04,25,04,10,9.40
2020,04,25,04,11,9.40
2020,04,25,04,12,9.40
2020,04,25,04,13,9.40
2020,04,25,04,14,9.40
2020,04,25,04,15,9.50
2020,04,25,04,16,9.50
2020,04,25,04,17,9.50
2020,04,25,04,18,9.50
2020,04,25,04,19,9.50
2020,04,25,04,20,9.50
2020,04,25,04,21,9.50
2020,04,25,04,22,9.50
2020,04,25,04,23,9.50
2020,04,25,04,24,9.50
2020,04,25,04,25,9.50
2020,04,25,04,26,9.50
2020,04,25,04,27,9.50
2020,04,25,04,28,9.50
2020,04,25,04,29,9.40
2020,04,25,04,30,9.50
2020,04,25,04,31,9.50
2020,04,25,04,32,9.50
2020,04,25,04,33,9.50
2020,04,25,04,34,9.50
2020,04,25,04,35,9.50
2020,04,25,04,36,9.40
2020,04,25,04,37,9.40
2020,04,25,04,38,9.50
2020,04,25,04,39,9.50
2020,04,25,04,40,9.50
2020,04,25,04,41,9.50
2020,04,25,04,42,9.50
2020,04,25,04,43,9.40
2020,04,25,04,44,9.40
2020,04,25,04,45,9.40
2020,04,25,04,46,9.40
2020,04,25,04,47,9.40
2020,04,25,04,48,9.40
2020,04,25,04,49,9.50
2020,04,25,04,50,9.50
2020,04,25,04,51,9.50
2020,04,25,04,52,9.50
2020,04,25,04,53,9.50
2020,04,25,04,54,9.50
2020,04,25,04,55,9.50
2020,04,25,04,56,9.50
2020,04,25,04,57,9.50
2020,04,25,04,58,9.50
2020,04,25,04,59,9.50
2020,04,25,05,00,9.50
2020,04,25,05,01,9.50
2020,04,25,05,02,9.50
2020,04,25,05,03,9.50
2020,04,25,05,04,9.50
2020,04,25,05,05,9.50
2020,04,25,05,06,9.50
2020,04,25,05,07,9.60
2020,04,25,05,08,9.60
2020,04,25,05,09,9.60
2020,04,25,05,10,9.60
2020,04,25,05,11,9.60
2020,04,25,05,12,9.60
2020,04,25,05,13,9.60
2020,04,25,05,14,9.60
2020,04,25,05,15,9.60
2020,04,25,05,16,9.60
2020,04,25,05,17,9.60
2020,04,25,05,18,9.60
2020,04,25,05,19,9.60
2020,04,25,05,20,9.60
2020,04,25,05,21,9.60
2020,04,25,05,22,9.60
2020,04,25,05,23,9.60
2020,04,25,05,24,9.50
2020,04,25,05,25,9.50
2020,04,25,05,26,9.50
2020,04,25,05,27,9.50
2020,04,25,05,28,9.50
2020,04,25,05,29,9.50
2020,04,25,05,30,9.60
2020,04,25,05,31,9.50
2020,04,25,05,32,9.50
2020,04,25,05,33,9.50
2020,04,25,05,34,9.50
2020,04,25,05,35,9.50
2020,04,25,05,36,9.50
2020,04,25,05,37,9.50
2020,04,25,05,38,9.50
2020,04,25,05,39,9.50
2020,04,25,05,40,9.60
2020,04,25,05,41,9.60
2020,04,25,05,42,9.60
2020,04,25,05,43,9.60
2020,04,25,05,44,9.60
2020,04,25,05,45,9.60
2020,04,25,05,46,9.60
2020,04,25,05,47,9.70
2020,04,25,05,48,9.70
2020,04,25,05,49,9.70
2020,04,25,05,50,9.70
2020,04,25,05,51,9.70
2020,04,25,05,52,9.70
2020,04,25,05,53,9.70
2020,04,25,05,54,9.70
2020,04,25,05,55,9.70
2020,04,25,05,56,9.70
2020,04,25,05,57,9.70
2020,04,25,05,58,9.70
2020,04,25,05,59,9.70
2020,04,25,06,00,9.70
2020,04,25,06,01,9.70
2020,04,25,06,02,9.70
2020,04,25,06,03,9.70
2020,04,25,06,04,9.70
2020,04,25,06,05,9.70
2020,04,25,06,06,9.70
2020,04,25,06,07,9.70
2020,04,25,06,08,9.70
2020,04,25,06,09,9.70
2020,04,25,06,10,9.70
2020,04,25,06,11,9.70
2020,04,25,06,12,9.70
2020,04,25,06,13,9.70
2020,04,25,06,14,9.70
2020,04,25,06,15,9.70
2020,04,25,06,16,9.70
2020,04,25,06,17,9.70
2020,04,25,06,18,9.70
2020,04,25,06,19,9.70
2020,04,25,06,20,9.70
2020,04,25,06,21,9.70
2020,04,25,06,22,9.70
2020,04,25,06,23,9.70
2020,04,25,06,24,9.70
2020,04,25,06,25,9.70
2020,04,25,06,26,9.70
2020,04,25,06,27,9.70
2020,04,25,06,28,9.70
2020,04,25,06,29,9.70
2020,04,25,06,30,9.70
2020,04,25,06,31,9.70
2020,04,25,06,32,9.70
2020,04,25,06,33,9.70
2020,04,25,06,34,9.70
2020,04,25,06,35,9.70
2020,04,25,06,36,9.70
2020,04,25,06,37,9.70
2020,04,25,06,38,9.70
2020,04,25,06,39,9.70
2020,04,25,06,40,9.70
2020,04,25,06,41,9.70
2020,04,25,06,42,9.70
2020,04,25,06,43,9.70
2020,04,25,06,44,9.70
2020,04,25,06,45,9.70
2020,04,25,06,46,9.80
2020,04,25,06,47,9.80
2020,04,25,06,48,9.70
2020,04,25,06,49,9.70
2020,04,25,06,50,9.70
2020,04,25,06,51,9.70
2020,04,25,06,52,9.70
2020,04,25,06,53,9.70
2020,04,25,06,54,9.70
2020,04,25,06,55,9.80
2020,04,25,06,56,9.80
2020,04,25,06,57,9.80
2020,04,25,06,58,9.80
2020,04,25,06,59,9.80
2020,04,25,07,00,9.80
2020,04,25,07,01,9.80
2020,04,25,07,02,9.80
2020,04,25,07,03,9.80
2020,04,25,07,04,9.80
2020,04,25,07,05,9.80
2020,04,25,07,06,9.80
2020,04,25,07,07,9.80
2020,04,25,07,08,9.80
2020,04,25,07,09,9.80
2020,04,25,07,10,9.80
2020,04,25,07,11,9.80
2020,04,25,07,12,9.80
2020,04,25,07,13,9.80
2020,04,25,07,14,9.80
2020,04,25,07,15,9.80
2020,04,25,07,16,9.80
2020,04,25,07,17,9.80
2020,04,25,07,18,9.80
2020,04,25,07,19,9.80
2020,04,25,07,20,9.80
2020,04,25,07,21,9.80
2020,04,25,07,22,9.80
2020,04,25,07,23,9.80
2020,04,25,07,24,9.80
2020,04,25,07,25,9.80
2020,04,25,07,26,9.80
2020,04,25,07,27,9.80
2020,04,25,07,28,9.80
2020,04,25,07,29,9.80
2020,04,25,07,30,9.80
2020,04,25,07,31,9.80
2020,04,25,07,32,9.80
2020,04,25,07,33,9.80
2020,04,25,07,34,9.80
2020,04,25,07,35,9.80
2020,04,25,07,36,9.80
2020,04,25,07,37,9.80
2020,04,25,07,38,9.80
2020,04,25,07,39,9.80
2020,04,25,07,40,9.80
2020,04,25,07,41,9.80
2020,04,25,07,42,9.80
2020,04,25,07,43,9.80
2020,04,25,07,44,9.80
2020,04,25,07,45,9.80
2020,04,25,07,46,9.80
2020,04,25,07,47,9.80
2020,04,25,07,48,9.80
2020,04,25,07,49,9.80
2020,04,25,07,50,9.80
2020,04,25,07,51,9.80
2020,04,25,07,52,9.80
2020,04,25,07,53,9.80
2020,04,25,07,54,9.80
2020,04,25,07,55,9.80
2020,04,25,07,56,9.80
2020,04,25,07,57,9.80
2020,04,25,07,58,9.80
2020,04,25,07,59,9.90
2020,04,25,08,00,9.90
2020,04,25,08,01,9.90
2020,04,25,08,02,9.90
2020,04,25,08,03,9.90
2020,04,25,08,04,9.90
2020,04,25,08,05,9.90
2020,04,25,08,06,9.90
2020,04,25,08,07,9.90
2020,04,25,08,08,9.90
2020,04,25,08,09,9.90
2020,04,25,08,10,9.90
2020,04,25,08,11,9.90
2020,04,25,08,12,9.90
2020,04,25,08,13,9.90
2020,04,25,08,14,9.90
2020,04,25,08,15,9.90
2020,04,25,08,16,9.90
2020,04,25,08,17,9.80
2020,04,25,08,18,9.80
2020,04,25,08,19,9.80
2020,04,25,08,20,9.80
2020,04,25,08,21,9.80
2020,04,25,08,22,9.80
2020,04,25,08,23,9.80
2020,04,25,08,24,9.90
2020,04,25,08,25,9.90
2020,04,25,08,26,9.90
2020,04,25,08,27,9.90
2020,04,25,08,28,9.90
2020,04,25,08,29,9.90
2020,04,25,08,30,9.90
2020,04,25,08,31,9.90
2020,04,25,08,32,9.90
2020,04,25,08,33,9.90
2020,04,25,08,34,9.90
2020,04,25,08,35,9.90
2020,04,25,08,36,9.90
2020,04,25,08,37,9.90
2020,04,25,08,38,9.90
2020,04,25,08,39,10.00
2020,04,25,08,40,10.00
2020,04,25,08,41,10.00
2020,04,25,08,42,9.90
2020,04,25,08,43,9.90
2020,04,25,08,44,9.90
2020,04,25,08,45,9.90
2020,04,25,08,46,9.90
2020,04,25,08,47,10.00
2020,04,25,08,48,10.00
2020,04,25,08,49,10.00
2020,04,25,08,50,10.00
2020,04,25,08,51,10.00
2020,04,25,08,52,10.00
2020,04,25,08,53,10.10
2020,04,25,08,54,10.10
2020,04,25,08,55,10.10
2020,04,25,08,56,10.10
2020,04,25,08,57,10.10
2020,04,25,08,58,10.10
2020,04,25,08,59,10.10
2020,04,25,09,00,10.10
2020,04,25,09,01,10.10
2020,04,25,09,02,10.10
2020,04,25,09,03,10.10
2020,04,25,09,04,10.00
2020,04,25,09,05,10.00
2020,04,25,09,06,10.00
2020,04,25,09,07,10.00
2020,04,25,09,08,10.00
2020,04,25,09,09,10.00
2020,04,25,09,10,10.10
2020,04,25,09,11,10.10
2020,04,25,09,12,10.20
2020,04,25,09,13,10.30
2020,04,25,09,14,10.30
2020,04,25,09,15,10.40
2020,04,25,09,16,10.30
2020,04,25,09,17,10.30
2020,04,25,09,18,10.30
2020,04,25,09,19,10.30
2020,04,25,09,20,10.30
2020,04,25,09,21,10.30
2020,04,25,09,22,10.30
2020,04,25,09,23,10.30
2020,04,25,09,24,10.30
2020,04,25,09,25,10.30
2020,04,25,09,26,10.30
2020,04,25,09,27,10.30
2020,04,25,09,28,10.30
2020,04,25,09,29,10.30
2020,04,25,09,30,10.30
2020,04,25,09,31,10.30
2020,04,25,09,32,10.30
2020,04,25,09,33,10.30
2020,04,25,09,34,10.40
2020,04,25,09,35,10.40
2020,04,25,09,36,10.40
2020,04,25,09,37,10.50
2020,04,25,09,38,10.40
2020,04,25,09,39,10.40
2020,04,25,09,40,10.40
2020,04,25,09,41,10.50
2020,04,25,09,42,10.50
2020,04,25,09,43,10.50
2020,04,25,09,44,10.50
2020,04,25,09,45,10.50
2020,04,25,09,46,10.50
2020,04,25,09,47,10.60
2020,04,25,09,48,10.60
2020,04,25,09,49,10.60
2020,04,25,09,50,10.60
2020,04,25,09,51,10.60
2020,04,25,09,52,10.60
2020,04,25,09,53,10.60
2020,04,25,09,54,10.60
2020,04,25,09,55,10.60
2020,04,25,09,56,10.70
2020,04,25,09,57,10.70
2020,04,25,09,58,10.70
2020,04,25,09,59,10.70
2020,04,25,10,00,10.80
2020,04,25,10,01,10.80
2020,04,25,10,02,10.80
2020,04,25,10,03,10.80
2020,04,25,10,04,10.90
2020,04,25,10,05,10.90
2020,04,25,10,06,10.80
2020,04,25,10,07,10.80
2020,04,25,10,08,10.80
2020,04,25,10,09,10.80
2020,04,25,10,10,10.70
2020,04,25,10,11,10.70
2020,04,25,10,12,10.60
2020,04,25,10,13,10.60
2020,04,25,10,14,10.60
2020,04,25,10,15,10.60
2020,04,25,10,16,10.60
2020,04,25,10,17,10.60
2020,04,25,10,18,10.60
2020,04,25,10,19,10.60
2020,04,25,10,20,10.60
2020,04,25,10,21,10.60
2020,04,25,10,22,10.70
2020,04,25,10,23,10.70
2020,04,25,10,24,10.70
2020,04,25,10,25,10.70
2020,04,25,10,26,10.70
2020,04,25,10,27,10.70
2020,04,25,10,28,10.70
2020,04,25,10,29,10.70
2020,04,25,10,30,10.70
2020,04,25,10,31,10.70
2020,04,25,10,32,10.80
2020,04,25,10,33,10.80
2020,04,25,10,34,10.80
2020,04,25,10,35,10.80
2020,04,25,10,36,10.80
2020,04,25,10,37,10.80
2020,04,25,10,38,10.80
2020,04,25,10,39,10.70
2020,04,25,10,40,10.70
2020,04,25,10,41,10.70
2020,04,25,10,42,10.60
2020,04,25,10,43,10.60
2020,04,25,10,44,10.60
2020,04,25,10,45,10.60
2020,04,25,10,46,10.60
2020,04,25,10,47,10.70
2020,04,25,10,48,10.70
2020,04,25,10,49,10.70
2020,04,25,10,50,10.70
2020,04,25,10,51,10.70
2020,04,25,10,52,10.70
2020,04,25,10,53,10.70
2020,04,25,10,54,10.70
2020,04,25,10,55,10.70
2020,04,25,10,56,10.70
2020,04,25,10,57,10.70
2020,04,25,10,58,10.70
2020,04,25,10,59,10.80
2020,04,25,11,00,10.90
2020,04,25,11,01,10.90
2020,04,25,11,02,11.00
2020,04,25,11,03,11.10
2020,04,25,11,04,11.20
2020,04,25,11,05,11.30
2020,04,25,11,06,11.30
2020,04,25,11,07,11.40
2020,04,25,11,08,11.50
2020,04,25,11,09,11.60
2020,04,25,11,10,11.60
2020,04,25,11,11,11.70
2020,04,25,11,12,11.80
2020,04,25,11,13,11.80
2020,04,25,11,14,11.90
2020,04,25,11,15,11.90
2020,04,25,11,16,11.90
2020,04,25,11,17,11.80
2020,04,25,11,18,11.80
2020,04,25,11,19,11.80
2020,04,25,11,20,11.80
2020,04,25,11,21,11.80
2020,04,25,11,22,11.80
2020,04,25,11,23,11.90
2020,04,25,11,24,12.00
2020,04,25,11,25,12.20
2020,04,25,11,26,12.30
2020,04,25,11,27,12.30
2020,04,25,11,28,12.40
2020,04,25,11,29,12.40
2020,04,25,11,30,12.50
2020,04,25,11,31,12.50
2020,04,25,11,32,12.40
2020,04,25,11,33,12.40
2020,04,25,11,34,12.40
2020,04,25,11,35,12.50
2020,04,25,11,36,12.60
2020,04,25,11,37,12.70
2020,04,25,11,38,12.80
2020,04,25,11,39,12.90
2020,04,25,11,40,13.10
2020,04,25,11,41,13.20
2020,04,25,11,42,13.30
2020,04,25,11,43,13.20
2020,04,25,11,44,13.10
2020,04,25,11,45,13.10
2020,04,25,11,46,13.00
2020,04,25,11,47,13.00
2020,04,25,11,48,13.00
2020,04,25,11,49,12.90
2020,04,25,11,50,12.80
2020,04,25,11,51,12.90
2020,04,25,11,52,12.80
2020,04,25,11,53,12.90
2020,04,25,11,54,13.10
2020,04,25,11,55,13.20
2020,04,25,11,56,13.30
2020,04,25,11,57,13.30
2020,04,25,11,58,13.30
2020,04,25,11,59,13.40
2020,04,25,12,00,13.30
2020,04,25,12,01,13.30
2020,04,25,12,02,13.40
2020,04,25,12,03,13.40
2020,04,25,12,04,13.40
2020,04,25,12,05,13.40
2020,04,25,12,06,13.40
2020,04,25,12,07,13.40
2020,04,25,12,08,13.50
2020,04,25,12,09,13.50
2020,04,25,12,10,13.50
2020,04,25,12,11,13.40
2020,04,25,12,12,13.40
2020,04,25,12,13,13.50
2020,04,25,12,14,13.70
2020,04,25,12,15,13.80
2020,04,25,12,16,13.70
2020,04,25,12,17,13.70
2020,04,25,12,18,13.70
2020,04,25,12,19,13.80
2020,04,25,12,20,13.80
2020,04,25,12,21,13.70
2020,04,25,12,22,13.60
2020,04,25,12,23,13.60
2020,04,25,12,24,13.50
2020,04,25,12,25,13.50
2020,04,25,12,26,13.40
2020,04,25,12,27,13.30
2020,04,25,12,28,13.40
2020,04,25,12,29,13.40
2020,04,25,12,30,13.40
2020,04,25,12,31,13.50
2020,04,25,12,32,13.70
2020,04,25,12,33,13.80
2020,04,25,12,34,13.80
2020,04,25,12,35,13.80
2020,04,25,12,36,13.70
2020,04,25,12,37,13.70
2020,04,25,12,38,13.70
2020,04,25,12,39,13.70
2020,04,25,12,40,13.80
2020,04,25,12,41,13.80
2020,04,25,12,42,13.90
2020,04,25,12,43,13.90
2020,04,25,12,44,13.80
2020,04,25,12,45,13.80
2020,04,25,12,46,13.90
2020,04,25,12,47,13.90
2020,04,25,12,48,14.00
2020,04,25,12,49,14.10
2020,04,25,12,50,14.10
2020,04,25,12,51,14.20
2020,04,25,12,52,14.20
2020,04,25,12,53,14.30
2020,04,25,12,54,14.30
2020,04,25,12,55,14.50
2020,04,25,12,56,14.60
2020,04,25,12,57,14.50
2020,04,25,12,58,14.40
2020,04,25,12,59,14.30
2020,04,25,13,00,14.30
2020,04,25,13,01,14.20
2020,04,25,13,02,14.10
2020,04,25,13,03,14.10
2020,04,25,13,04,14.00
2020,04,25,13,05,13.90
2020,04,25,13,06,13.70
2020,04,25,13,07,13.80
2020,04,25,13,08,13.90
2020,04,25,13,09,13.90
2020,04,25,13,10,14.00
2020,04,25,13,11,14.00
2020,04,25,13,12,14.10
2020,04,25,13,13,14.10
2020,04,25,13,14,14.10
2020,04,25,13,15,14.30
2020,04,25,13,16,14.30
2020,04,25,13,17,14.30
2020,04,25,13,18,14.10
2020,04,25,13,19,13.90
2020,04,25,13,20,13.80
2020,04,25,13,21,13.70
2020,04,25,13,22,13.80
2020,04,25,13,23,14.00
2020,04,25,13,24,14.00
2020,04,25,13,25,14.00
2020,04,25,13,26,14.10
2020,04,25,13,27,14.20
2020,04,25,13,28,14.20
2020,04,25,13,29,14.20
2020,04,25,13,30,14.00
2020,04,25,13,31,13.90
2020,04,25,13,32,13.90
2020,04,25,13,33,13.90
2020,04,25,13,34,14.00
2020,04,25,13,35,14.10
2020,04,25,13,36,14.20
2020,04,25,13,37,14.10
2020,04,25,13,38,14.10
2020,04,25,13,39,14.20
2020,04,25,13,40,14.10
2020,04,25,13,41,14.00
2020,04,25,13,42,13.90
2020,04,25,13,43,13.90
2020,04,25,13,44,14.00
2020,04,25,13,45,14.10
2020,04,25,13,46,14.20
2020,04,25,13,47,14.10
2020,04,25,13,48,14.00
2020,04,25,13,49,13.90
2020,04,25,13,50,13.90
2020,04,25,13,51,14.00
2020,04,25,13,52,13.90
2020,04,25,13,53,13.90
2020,04,25,13,54,13.80
2020,04,25,13,55,13.90
2020,04,25,13,56,14.10
2020,04,25,13,57,14.20
2020,04,25,13,58,14.20
2020,04,25,13,59,14.30
2020,04,25,14,00,14.40
2020,04,25,14,01,14.40
2020,04,25,14,02,14.60
2020,04,25,14,03,14.70
2020,04,25,14,04,14.60
2020,04,25,14,05,14.60
2020,04,25,14,06,14.80
2020,04,25,14,07,14.80
2020,04,25,14,08,14.80
2020,04,25,14,09,14.90
2020,04,25,14,10,14.90
2020,04,25,14,11,14.90
2020,04,25,14,12,14.60
2020,04,25,14,13,14.30
2020,04,25,14,14,14.20
2020,04,25,14,15,14.20
2020,04,25,14,16,14.00
2020,04,25,14,17,13.90
2020,04,25,14,18,14.00
2020,04,25,14,19,14.10
2020,04,25,14,20,14.30
2020,04,25,14,21,14.30
2020,04,25,14,22,14.40
2020,04,25,14,23,14.50
2020,04,25,14,24,14.60
2020,04,25,14,25,14.70
2020,04,25,14,26,14.80
2020,04,25,14,27,14.90
2020,04,25,14,28,14.80
2020,04,25,14,29,14.70
2020,04,25,14,30,14.50
2020,04,25,14,31,14.30
2020,04,25,14,32,14.10
2020,04,25,14,33,14.00
2020,04,25,14,34,14.00
2020,04,25,14,35,14.00
2020,04,25,14,36,14.00
2020,04,25,14,37,13.90
2020,04,25,14,38,14.00
2020,04,25,14,39,13.90
2020,04,25,14,40,13.90
2020,04,25,14,41,13.90
2020,04,25,14,42,13.90
2020,04,25,14,43,13.90
2020,04,25,14,44,14.00
2020,04,25,14,45,14.10
2020,04,25,14,46,14.10
2020,04,25,14,47,14.00
2020,04,25,14,48,14.00
2020,04,25,14,49,14.10
2020,04,25,14,50,14.00
2020,04,25,14,51,14.10
2020,04,25,14,52,14.10
2020,04,25,14,53,13.80
2020,04,25,14,54,13.70
2020,04,25,14,55,13.70
2020,04,25,14,56,13.60
2020,04,25,14,57,13.40
2020,04,25,14,58,13.30
2020,04,25,14,59,13.20
2020,04,25,15,00,13.20
2020,04,25,15,01,13.40
2020,04,25,15,02,13.50
2020,04,25,15,03,13.50
2020,04,25,15,04,13.50
2020,04,25,15,05,13.60
2020,04,25,15,06,13.70
2020,04,25,15,07,13.90
2020,04,25,15,08,13.80
2020,04,25,15,09,13.80
2020,04,25,15,10,13.80
2020,04,25,15,11,13.80
2020,04,25,15,12,13.70
2020,04,25,15,13,13.60
2020,04,25,15,14,13.70
2020,04,25,15,15,13.70
2020,04,25,15,16,13.60
2020,04,25,15,17,13.50
2020,04,25,15,18,13.50
2020,04,25,15,19,13.40
2020,04,25,15,20,13.50
2020,04,25,15,21,13.60
2020,04,25,15,22,13.70
2020,04,25,15,23,13.70
2020,04,25,15,24,13.80
2020,04,25,15,25,13.90
2020,04,25,15,26,14.10
2020,04,25,15,27,14.20
2020,04,25,15,28,14.30
2020,04,25,15,29,14.50
2020,04,25,15,30,14.60
2020,04,25,15,31,14.30
2020,04,25,15,32,14.20
2020,04,25,15,33,14.20
2020,04,25,15,34,14.10
2020,04,25,15,35,14.10
2020,04,25,15,36,14.10
2020,04,25,15,37,14.10
2020,04,25,15,38,14.00
2020,04,25,15,39,13.80
2020,04,25,15,40,13.60
2020,04,25,15,41,13.70
2020,04,25,15,42,13.80
2020,04,25,15,43,14.00
2020,04,25,15,44,14.10
2020,04,25,15,45,14.10
2020,04,25,15,46,13.90
2020,04,25,15,47,13.80
2020,04,25,15,48,13.80
2020,04,25,15,49,13.70
2020,04,25,15,50,13.70
2020,04,25,15,51,13.70
2020,04,25,15,52,13.70
2020,04,25,15,53,13.70
2020,04,25,15,54,13.80
2020,04,25,15,55,13.80
2020,04,25,15,56,13.80
2020,04,25,15,57,13.80
2020,04,25,15,58,13.90
2020,04,25,15,59,14.00
2020,04,25,16,00,14.10
2020,04,25,16,01,14.10
2020,04,25,16,02,14.20
2020,04,25,16,03,14.20
2020,04,25,16,04,14.00
2020,04,25,16,05,14.00
2020,04,25,16,06,13.90
2020,04,25,16,07,14.00
2020,04,25,16,08,14.00
2020,04,25,16,09,14.00
2020,04,25,16,10,14.00
2020,04,25,16,11,13.90
2020,04,25,16,12,13.90
2020,04,25,16,13,13.90
2020,04,25,16,14,13.80
2020,04,25,16,15,13.60
2020,04,25,16,16,13.40
2020,04,25,16,17,13.40
2020,04,25,16,18,13.40
2020,04,25,16,19,13.40
2020,04,25,16,20,13.50
2020,04,25,16,21,13.50
2020,04,25,16,22,13.60
2020,04,25,16,23,13.60
2020,04,25,16,24,13.70
2020,04,25,16,25,13.70
2020,04,25,16,26,13.70
2020,04,25,16,27,13.50
2020,04,25,16,28,13.40
2020,04,25,16,29,13.50
2020,04,25,16,30,13.60
2020,04,25,16,31,13.60
2020,04,25,16,32,13.50
2020,04,25,16,33,13.60
2020,04,25,16,34,13.70
2020,04,25,16,35,13.60
2020,04,25,16,36,13.50
2020,04,25,16,37,13.50
2020,04,25,16,38,13.60
2020,04,25,16,39,13.60
2020,04,25,16,40,13.60
2020,04,25,16,41,13.50
2020,04,25,16,42,13.40
2020,04,25,16,43,13.40
2020,04,25,16,44,13.40
2020,04,25,16,45,13.40
2020,04,25,16,46,13.40
2020,04,25,16,47,13.40
2020,04,25,16,48,13.30
2020,04,25,16,49,13.30
2020,04,25,16,50,13.30
2020,04,25,16,51,13.30
2020,04,25,16,52,13.30
2020,04,25,16,53,13.40
2020,04,25,16,54,13.60
2020,04,25,16,55,13.70
2020,04,25,16,56,13.80
2020,04,25,16,57,13.80
2020,04,25,16,58,13.80
2020,04,25,16,59,13.70
2020,04,25,17,00,13.50
2020,04,25,17,01,13.40
2020,04,25,17,02,13.30
2020,04,25,17,03,13.30
2020,04,25,17,04,13.30
2020,04,25,17,05,13.30
2020,04,25,17,06,13.30
2020,04,25,17,07,13.40
2020,04,25,17,08,13.50
2020,04,25,17,09,13.60
2020,04,25,17,10,13.60
2020,04,25,17,11,13.70
2020,04,25,17,12,13.80
2020,04,25,17,13,13.90
2020,04,25,17,14,13.80
2020,04,25,17,15,13.70
2020,04,25,17,16,13.70
2020,04,25,17,17,13.90
2020,04,25,17,18,13.80
2020,04,25,17,19,13.80
2020,04,25,17,20,13.80
2020,04,25,17,21,13.80
2020,04,25,17,22,13.80
2020,04,25,17,23,13.70
2020,04,25,17,24,13.50
2020,04,25,17,25,13.50
2020,04,25,17,26,13.40
2020,04,25,17,27,13.30
2020,04,25,17,28,13.10
2020,04,25,17,29,13.00
2020,04,25,17,30,12.90
2020,04,25,17,31,12.90
2020,04,25,17,32,13.00
2020,04,25,17,33,13.00
2020,04,25,17,34,13.10
2020,04,25,17,35,13.10
2020,04,25,17,36,13.10